Location: Sandbach
(53.1410°N, 2.3660°W)
Time: 21:19:20
(UTC+00:00)

ISS - Visible Passes

Search period start: 09 February 2026 00:00
Search period end: 19 February 2026 00:00
Orbit: 414 x 429 km, 51.6° (Epoch: 9 February)

Date Brightness Start Highest point End Pass type
(mag) Time Alt. Az. Time Alt. Az. Time Alt. Az.
12 Feb -0.9 06:55:29 10° S 06:57:51 18° SE 07:00:12 10° E visible
13 Feb -0.8 06:09:23 10° S 06:11:01 13° SE 06:12:40 10° ESE visible
15 Feb -1.7 06:10:32 10° SSW 06:13:20 25° SSE 06:16:07 10° E visible
16 Feb -1.4 05:24:33 13° S 05:26:25 19° SE 05:28:49 10° E visible
17 Feb -1.0 04:39:35 13° SE 04:39:35 13° SE 04:41:14 10° ESE visible
17 Feb -2.7 06:12:35 10° SW 06:15:44 42° SSE 06:18:55 10° E visible
18 Feb -2.4 05:27:29 25° SSW 05:28:42 33° SSE 05:31:45 10° E visible
